Meteo pe oră la Dziadyk

Astăzi, 1 Octombrie, Joi

Timp Temperatura Precipitaţii Vânt Presiune Umiditate
00:00 +13°C° 0 mm 2 m/s 743 mmHg 83%
01:00 +12°C° 0 mm 3 m/s 742 mmHg 82%
02:00 +12°C° 0 mm 3 m/s 742 mmHg 84%
03:00 +11°C° 0 mm 3 m/s 741 mmHg 87%
04:00 +11°C° 0 mm 3 m/s 741 mmHg 89%
05:00 +11°C° 0 mm 3 m/s 741 mmHg 87%
06:00 +11°C° 0 mm 3 m/s 741 mmHg 86%
07:00 +11°C° 0 mm 3 m/s 741 mmHg 85%
08:00 +12°C° 0 mm 3 m/s 741 mmHg 81%
09:00 +13°C° 0 mm 4 m/s 740 mmHg 77%
10:00 +13°C° 0 mm 4 m/s 740 mmHg 73%
11:00 +14°C° 0 mm 4 m/s 740 mmHg 69%
12:00 +15°C° 0 mm 4 m/s 740 mmHg 66%
13:00 +15°C° 0 mm 4 m/s 740 mmHg 62%
14:00 +15°C° 0 mm 4 m/s 739 mmHg 61%
15:00 +16°C° 0 mm 3 m/s 739 mmHg 61%
16:00 +17°C° 0 mm 3 m/s 739 mmHg 60%
17:00 +16°C° 0 mm 3 m/s 739 mmHg 66%
18:00 +14°C° 0 mm 4 m/s 739 mmHg 73%
19:00 +13°C° 0 mm 4 m/s 740 mmHg 80%
20:00 +12°C° 0 mm 4 m/s 740 mmHg 82%
21:00 +12°C° 0 mm 4 m/s 739 mmHg 84%
22:00 +11°C° 0 mm 4 m/s 739 mmHg 87%
23:00 +11°C° 0 mm 4 m/s 740 mmHg 87%

Mâine, 2 Octombrie, Vineri

Timp Temperatura Precipitaţii Vânt Presiune Umiditate
00:00 +11°C° 0 mm 4 m/s 740 mmHg 88%
01:00 +11°C° 0 mm 4 m/s 740 mmHg 88%
02:00 +11°C° 0 mm 4 m/s 740 mmHg 89%
03:00 +11°C° 0 mm 4 m/s 739 mmHg 90%
04:00 +11°C° 0 mm 4 m/s 739 mmHg 91%
05:00 +11°C° 0 mm 4 m/s 739 mmHg 89%
06:00 +12°C° 0 mm 4 m/s 739 mmHg 88%
07:00 +13°C° 0 mm 5 m/s 740 mmHg 87%
08:00 +13°C° 0.1 mm 5 m/s 740 mmHg 83%
09:00 +14°C° 0.1 mm 5 m/s 740 mmHg 79%
10:00 +14°C° 0.1 mm 6 m/s 740 mmHg 76%
11:00 +14°C° 0.3 mm 5 m/s 740 mmHg 78%
12:00 +14°C° 0.3 mm 5 m/s 740 mmHg 80%
13:00 +14°C° 0.3 mm 5 m/s 740 mmHg 82%
14:00 +13°C° 0.1 mm 5 m/s 740 mmHg 83%
15:00 +13°C° 0.1 mm 5 m/s 740 mmHg 83%
16:00 +13°C° 0.1 mm 5 m/s 740 mmHg 84%
17:00 +13°C° 0 mm 5 m/s 740 mmHg 86%
18:00 +13°C° 0 mm 4 m/s 740 mmHg 88%
19:00 +12°C° 0 mm 4 m/s 740 mmHg 90%
20:00 +12°C° 0 mm 4 m/s 740 mmHg 91%
21:00 +12°C° 0 mm 4 m/s 740 mmHg 92%
22:00 +12°C° 0 mm 4 m/s 740 mmHg 93%
23:00 +11°C° 0 mm 4 m/s 740 mmHg 94%

Poimâine, 3 Octombrie, Sâmbătă

Timp Temperatura Precipitaţii Vânt Presiune Umiditate
00:00 +11°C° 0 mm 4 m/s 740 mmHg 95%
01:00 +10°C° 0 mm 5 m/s 739 mmHg 95%
02:00 +10°C° 0 mm 5 m/s 739 mmHg 95%
03:00 +10°C° 0 mm 5 m/s 739 mmHg 94%
04:00 +10°C° 0 mm 6 m/s 739 mmHg 93%
05:00 +11°C° 0.1 mm 6 m/s 738 mmHg 91%
06:00 +11°C° 0.1 mm 6 m/s 738 mmHg 90%
07:00 +11°C° 0.1 mm 7 m/s 738 mmHg 88%
08:00 +14°C° 0 mm 7 m/s 738 mmHg 83%
09:00 +15°C° 0 mm 8 m/s 737 mmHg 79%
10:00 +16°C° 0 mm 8 m/s 737 mmHg 74%
11:00 +18°C° 0 mm 8 m/s 737 mmHg 69%
12:00 +20°C° 0 mm 8 m/s 736 mmHg 64%
13:00 +21°C° 0 mm 8 m/s 736 mmHg 59%
14:00 +21°C° 0 mm 7 m/s 736 mmHg 59%
15:00 +21°C° 0 mm 6 m/s 736 mmHg 59%
16:00 +21°C° 0 mm 6 m/s 735 mmHg 59%
17:00 +21°C° 0 mm 6 m/s 735 mmHg 60%
18:00 +20°C° 0 mm 6 m/s 736 mmHg 60%
19:00 +18°C° 0 mm 7 m/s 736 mmHg 61%
20:00 +18°C° 0 mm 7 m/s 736 mmHg 63%
21:00 +18°C° 0 mm 7 m/s 736 mmHg 64%
22:00 +17°C° 0 mm 6 m/s 736 mmHg 66%
23:00 +18°C° 0 mm 7 m/s 736 mmHg 65%

4 Octombrie, Duminică

Timp Temperatura Precipitaţii Vânt Presiune Umiditate
00:00 +18°C° 0 mm 7 m/s 735 mmHg 64%
01:00 +18°C° 0 mm 7 m/s 735 mmHg 63%
02:00 +18°C° 0 mm 8 m/s 735 mmHg 64%
03:00 +18°C° 0 mm 8 m/s 735 mmHg 64%
04:00 +18°C° 0 mm 8 m/s 735 mmHg 65%
05:00 +17°C° 0 mm 8 m/s 735 mmHg 66%
06:00 +17°C° 0 mm 8 m/s 735 mmHg 67%
07:00 +17°C° 0 mm 7 m/s 735 mmHg 68%
08:00 +18°C° 0.1 mm 8 m/s 735 mmHg 67%
09:00 +20°C° 0.1 mm 8 m/s 736 mmHg 66%
10:00 +20°C° 0.1 mm 8 m/s 736 mmHg 64%
11:00 +20°C° 0.5 mm 7 m/s 737 mmHg 69%
12:00 +19°C° 0.5 mm 6 m/s 737 mmHg 74%
13:00 +17°C° 0.5 mm 5 m/s 737 mmHg 79%
14:00 +19°C° 0 mm 4 m/s 738 mmHg 74%
15:00 +19°C° 0 mm 4 m/s 738 mmHg 69%
16:00 +20°C° 0 mm 3 m/s 739 mmHg 64%
17:00 +18°C° 0 mm 3 m/s 739 mmHg 69%
18:00 +17°C° 0 mm 3 m/s 739 mmHg 73%
19:00 +16°C° 0 mm 3 m/s 740 mmHg 77%
20:00 +15°C° 0 mm 2 m/s 740 mmHg 78%
21:00 +15°C° 0 mm 2 m/s 740 mmHg 79%
22:00 +14°C° 0 mm 2 m/s 740 mmHg 80%
23:00 +14°C° 0 mm 2 m/s 740 mmHg 79%

5 Octombrie, Luni

Timp Temperatura Precipitaţii Vânt Presiune Umiditate
00:00 +14°C° 0 mm 2 m/s 740 mmHg 79%
01:00 +14°C° 0 mm 2 m/s 740 mmHg 79%
02:00 +13°C° 0 mm 3 m/s 740 mmHg 83%
03:00 +12°C° 0 mm 3 m/s 740 mmHg 87%
04:00 +12°C° 0 mm 3 m/s 739 mmHg 90%
05:00 +12°C° 0 mm 3 m/s 739 mmHg 91%
06:00 +13°C° 0 mm 3 m/s 739 mmHg 91%
07:00 +13°C° 0 mm 4 m/s 739 mmHg 92%
08:00 +14°C° 0.1 mm 4 m/s 739 mmHg 89%
09:00 +16°C° 0.1 mm 5 m/s 738 mmHg 87%
10:00 +17°C° 0.1 mm 5 m/s 738 mmHg 85%
11:00 +19°C° 0.5 mm 5 m/s 738 mmHg 76%
12:00 +20°C° 0.5 mm 6 m/s 738 mmHg 68%
13:00 +22°C° 0.5 mm 6 m/s 738 mmHg 59%
14:00 +21°C° 0 mm 5 m/s 738 mmHg 59%
15:00 +21°C° 0 mm 5 m/s 738 mmHg 58%
16:00 +20°C° 0 mm 4 m/s 738 mmHg 58%
17:00 +20°C° 0 mm 4 m/s 738 mmHg 61%
18:00 +19°C° 0 mm 4 m/s 738 mmHg 64%
19:00 +18°C° 0 mm 4 m/s 738 mmHg 66%
20:00 +17°C° 0.1 mm 4 m/s 739 mmHg 69%
21:00 +17°C° 0.1 mm 4 m/s 739 mmHg 71%
22:00 +15°C° 0.1 mm 4 m/s 740 mmHg 73%
23:00 +14°C° 0 mm 4 m/s 740 mmHg 76%

6 Octombrie, Marţi

Timp Temperatura Precipitaţii Vânt Presiune Umiditate
00:00 +13°C° 0 mm 4 m/s 740 mmHg 79%
01:00 +13°C° 0 mm 4 m/s 741 mmHg 82%
02:00 +12°C° 0 mm 3 m/s 741 mmHg 85%
03:00 +11°C° 0 mm 3 m/s 742 mmHg 88%
04:00 +11°C° 0 mm 3 m/s 742 mmHg 91%
05:00 +12°C° 0 mm 2 m/s 742 mmHg 89%
06:00 +12°C° 0 mm 2 m/s 742 mmHg 86%
07:00 +12°C° 0 mm 2 m/s 743 mmHg 84%
08:00 +14°C° 0 mm 2 m/s 743 mmHg 76%
09:00 +14°C° 0 mm 3 m/s 743 mmHg 68%
10:00 +17°C° 0 mm 3 m/s 743 mmHg 60%
11:00 +18°C° 0 mm 3 m/s 743 mmHg 57%
12:00 +19°C° 0 mm 3 m/s 743 mmHg 55%
13:00 +19°C° 0 mm 3 m/s 742 mmHg 52%
14:00 +19°C° 0 mm 2 m/s 742 mmHg 57%
15:00 +20°C° 0 mm 1 m/s 742 mmHg 61%
16:00 +19°C° 0 mm 1 m/s 741 mmHg 66%
17:00 +18°C° 1 mm 1 m/s 741 mmHg 72%
18:00 +16°C° 1 mm 1 m/s 740 mmHg 79%
19:00 +15°C° 1 mm 2 m/s 740 mmHg 86%
20:00 +14°C° 4.7 mm 3 m/s 740 mmHg 89%
21:00 +14°C° 4.7 mm 4 m/s 739 mmHg 92%
22:00 +14°C° 4.7 mm 4 m/s 739 mmHg 96%
23:00 +13°C° 0.6 mm 4 m/s 739 mmHg 94%
Arată mai mult

We Need Your Consent

Meteoprog and our Service Providers may store and access personal data such as cookies, device identifiers or other similar technologies on your device and process such data to personalise content and ads, as well as provide social media features and to analyse the traffic.

  • Store and/or access information on your device

    Cookies, device identifiers or other information can be stored or accessed on your device for the purposes indicated above.

  • Personalised ads and content, ad and content measurement, audience insights, and products development

    Ads and content can be personalised based on a profile. More data can be added to better personalise ads and content. Ad and content performance can be measured. Insights about the audience who saw the ads and content can be derived. Such data can be used to develop or improve user’s experience, systems and software.

By clicking ‘I Agree’ you will allow the use of indicated cookies, device identifiers, web beacons or other similar technologies. Your settings can be changed in the browser on your device.

For certain purposes, legitimate interests may be relied on, rather than consent. You can read more about this in our Privacy and Cookie Policy.